Terminal Aerodrome Forecast
Issued by NWS Buffalo, NY

Home | Current Version | Previous Version | Text Only | Print | Product List | Glossary On
Versions: 1 2 3 4 5 6 7 8 9 10 11 12 13 14 15 16 17 18 19 20 21 22 23 24 25 26 27 28 29 30 31 32
000
FTUS41 KBUF 120948 AAA
TAFART
TAF AMD
KART 120948Z 1210/1306 VRB03KT P6SM OVC070
     FM121100 15005KT 1SM -SN OVC015
     FM121300 17009KT 1/4SM +SN OVC007
     FM121500 22016G22KT 1/4SM +SN BLSN OVC007
     FM130100 23013KT 2SM -SN OVC025
     FM130500 32012KT P6SM VCSH BKN040=

USA.gov is the U.S. government's official web portal to all federal, state and local government web resources and services.